User: anonymous   Login
Location: Unspecified
(0.0000°N, 0.0000°E)
Time: 03:31:12
(UTC+00:00)
Language:

LilacSat-2 - Orbit

View from above orbital plane
View from above orbital plane
View from above satellite
View from above satellite

Ground track
Ground track

The orbit data is extracted from the following two-line orbital elements,

1 40908U 15049K   18015.94571405  .00000357  00000-0  23583-4 0  9990
2 40908 097.4655 021.5392 0015726 190.2081 169.8833 15.13382298128341
Epoch (UTC): 15 January 2018 22:41:49
Eccentricity: 0.0015726
inclination: 97.4655°
perigee height: 515 km
apogee height: 537 km
right ascension of ascending node: 21.5392°
argument of perigee: 190.2081°
revolutions per day: 15.13382298
mean anomaly at epoch: 169.8833°
orbit number at epoch: 12834

The dashed part of the orbit path shows where the satellite is in the earth's shadow,  

DLR